Terug naar catalogus

CZ-6A DEB

ActiefSSO
NORAD 54583·DEBRIS·🇨🇳 China

Gelanceerd Nov 11, 2022 vanaf Taiyuan Satellite Launch Center

Loading…

Volgende Passages (komende 24 uur)

TLE

VersSource: Space-Track

Epoch: Sep 14, 2026, 08:54 UTC

1 54583U 22151MK  26257.37146000  .00001246  00000-0  72449-3 0  9991
2 54583  98.8667 243.8449 0087101 132.1572 228.7039 14.08581582196080

Volg CZ-6A DEB in realtime met AllMySat

Download on the App Store